Regional Weather Roundup
Issued by NWS Wilmington, NC

Home | Current Version | Previous Version | Text Only | Print | Product List | Glossary On
Versions: 1 2 3 4 5 6 7 8 9 10 11 12 13 14 15 16 17 18 19 20 21 22 23 24 25 26 27 28 29 30 31 32 33 34 35 36 37 38 39 40 41 42 43 44 45 46 47 48 49 50
000
ASUS42 KILM 211510
RWRILM
RWRILM
REGIONAL HOURLY WEATHER ROUNDUP
NATIONAL WEATHER SERVICE WILMINGTON NC
1100 AM EDT SUN SEP 21 2014

NOTE: "FAIR" INDICATES FEW OR NO CLOUDS BELOW 12,000 FEET WITH NO
SIGNIFICANT WEATHER AND/OR OBSTRUCTIONS TO VISIBILITY.

...............WFO WILMINGTON COUNTY WARNING AREA...............

......COASTAL NC AND SC COUNTIES......

CITY           SKY/WX    TMP DP  RH WIND       PRES   REMARKS
WILMINGTON     PTSUNNY   76  68  76 NW18      29.88R
SOUTHPORT      CLOUDY    74  66  77 NW10G18   29.89R
N MYRTLE BEACH MOSUNNY   76  65  68 NW8       29.92R
MYRTLE BEACH   SUNNY     75  64  69 NW12      29.94R

......INLAND NC AND SC COUNTIES.......

CITY           SKY/WX    TMP DP  RH WIND       PRES   REMARKS
LUMBERTON      MOSUNNY   79  62  56 NW12      29.92S
ELIZABETHTOWN  MOSUNNY   75  64  67 N3        29.92R
WHITEVILLE     MOSUNNY   75  63  66 NW5       29.92S
FLORENCE       MOSUNNY   78  61  55 NW6       29.95S
DARLINGTON     SUNNY     75  63  64 W6        29.96S

....................REST OF NORTH CAROLINA......................

.........EASTERN NC.........

CITY           SKY/WX    TMP DP  RH WIND       PRES   REMARKS
CAPE HATTERAS  CLOUDY    73  72  96 VRB7G20   29.73F
JACKSONVILLE   PTSUNNY   75  64  69 NW8G20    29.87R
MOREHEAD CITY  CLOUDY    75  69  81 NW18G28   29.81R
KENANSVILLE    PTSUNNY   70  62  75 NW7       29.91R
NEW BERN       CLOUDY    76  69  79 NW8       29.85R
ELIZABETH CITY CLOUDY    75  70  84 N16       29.79S

.........CENTRAL NC.........

CITY           SKY/WX    TMP DP  RH WIND       PRES   REMARKS
RALEIGH DURHAM PTSUNNY   74  59  59 NW7       29.91S
ROCKY MOUNT    PTSUNNY   70  64  81 W5        29.88S
ROANOKE RAPIDS NOT AVBL
FAYETTEVILLE   MOSUNNY   79  61  53 NW7       29.91S
HOFFMAN        NOT AVBL

.........WESTERN NC.........

CITY           SKY/WX    TMP DP  RH WIND       PRES   REMARKS
CHARLOTTE      MOSUNNY   76  61  59 VRB3      29.98S
GREENSBORO     MOSUNNY   77  60  55 W9        29.94R
HICKORY        NOT AVBL
BOONE          NOT AVBL
ASHEVILLE      NOT AVBL

.....................REST OF SOUTH CAROLINA.....................

.........EASTERN SC.........

CITY           SKY/WX    TMP DP  RH WIND       PRES   REMARKS
CHARLESTON     MOSUNNY   79  63  57 NW7       29.99R
BEAUFORT MCAS  SUNNY     79  62  56 S8        30.01R
HILTON HEAD    NOT AVBL

.........CENTRAL SC.........

CITY           SKY/WX    TMP DP  RH WIND       PRES   REMARKS
COLUMBIA       MOSUNNY   80  60  50 W7        29.98S
ORANGEBURG     SUNNY     78  60  53 NW8       30.00R
SUMTER SHAW    SUNNY     78  62  57 NW8       29.96S

.........WESTERN SC.........

CITY           SKY/WX    TMP DP  RH WIND       PRES   REMARKS
GREENVILLE     NOT AVBL
ROCK HILL      SUNNY     76  61  59 MISG      29.99S
ANDERSON       SUNNY     78  63  59 W8        30.02S
CLEMSON        NOT AVBL
GREENWOOD      SUNNY     78  63  59 W10       30.03R


...................COASTAL AND OFFSHORE REPORTS..................

................LOCAL PIERS AND NC RESERVE................


STATION/POSITION TIME  SKY/WX   TEMP    WIND        PRES    VSBY
                                AIR SEA DIR/SP/G
                 (UTC)          (F)     (DEG/KT/KT) (MB)    (MI)
JOHNY MRCER PIER 1500            74 79  310/ 11/ 15 1010.8S
NC RESRV MASNBRO 1400            74     200/  2     1011.0R
OCEAN CREST PIER 1500            73 79  290/ 12/ 15 1011.3R
SPRINGMAID  PIER 1500            72 79  300/  9/ 13 1013.5S


................COASTAL AND OFFSHORE BUOYS................


STATION/POSITION TIME  SKY/WX   TEMP    WIND        PRES    VSBY
                                AIR SEA DIR/SP/G
                 (UTC)          (F)     (DEG/KT/KT) (MB)    (MI)
DIMNDSHOAL 41025 1500            75     330/ 27/ 31 1005.2F
WVE H/P(F/S)=  9/ 8 WND WVE H/P(F/S)=  5/ 7 SWL H/P/D(F/S/D)=  7/130/ 8

CAPE LOOKOUT     1400            73     330/ 18/ 20 1008.5R
ONSLOW BAY 41036 1500            74 82  330/ 21/ 27 1010.0R
WVE H/P(F/S)=  7/ 5 WND WVE H/P(F/S)=  7/ 5 SWL H/P/D(F/S/D)=  3/100/10

5 WRITEBCH 41038 1400            70 79  330/ 16/ 17   N/A
MASONBORO  41110 1500               79                N/A
WVE H/P(F/S)=  4/ 9 WND WVE H/P(F/S)=  3/ 9 SWL H/P/D(F/S/D)=  2/ 90/11

WILM HARBR 41108 1500               79                N/A
WVE H/P(F/S)=  3/ 4 WND WVE H/P(F/S)=  3/ 4

27WRITEBCH 41037 1400            71 80  340/ 21/ 27 1010.3R
FRYING PAN 41013 NOT AVBL
SUNST NRSH 41024 1400            72     330/ 14/ 14 1012.3R
CAPRS NRSH 41029 1400            73     330/ 12/ 16   N/A
EDISTO     41004 1500            75 81  320/ 16/ 17 1013.8R
WVE H/P(F/S)=  6/ 7 WND WVE H/P(F/S)=  5/ 7 SWL H/P/D(F/S/D)=  2/ 9



..........OFFSHORE BUOYS BEYOND 100 NM OFFSHORE...........
.....IN A TRIANGLE---HAT TO BERMUDA TO BAHAMAS TO HAT.....


STATION/POSITION TIME  SKY/WX   TEMP    WIND        PRES    VSBY
                                AIR SEA DIR/SP/G
                 (UTC)          (F)     (DEG/KT/KT) (MB)    (MI)
150E HAT   41001 NOT AVBL
W BERMUDA  41048 1427            77 80  200/ 17/ 23 1017.5R
WVE H/P(F/S)=  8/ 7 WND WVE H/P(F/S)=  8/ 7 SWL H/P/D(F/S/D)=  2/150/16

ATLANTIC S 41049 1416            84 85  120/ 14/ 17 1021.3R
WVE H/P(F/S)=  5/ 6 WND WVE H/P(F/S)=  5/ 6 SWL H/P/D(F/S/D)=  3/120/13

E BAHAMAS  41046 1433            84 85  170/  8/ 10 1019.2R
WVE H/P(F/S)=  4/ 6 WND WVE H/P(F/S)=  2/ 4 SWL H/P/D(F/S/D)=  3/110/ 6

NE BAHAMAS 41047 1449            83 83  180/ 14/ 16 1018.7R
WVE H/P(F/S)=  5/ 6 WND WVE H/P(F/S)=  3/ 6 SWL H/P/D(F/S/D)=  2/ 60/ 8

120E CANVRL41010 1500            81 85  290/  4/  6 1016.0R
WVE H/P(F/S)=  4/ 9 WND WVE H/P(F/S)=  2/ 4 SWL H/P/D(F/S/D)=  3/350/ 9


END



USA.gov is the U.S. government's official web portal to all federal, state and local government web resources and services.